This demonstration page uses our WeatherBlox Daily Observations layout. Learn more.

Left ArrowRight Arrow

41.55636, -103.73856

Hourly Observations for May 7, 2021

Temp ( °F °C ) Dew Point ( °F °C ) Humidity (%) Winds ( mph kmh ) Pressure ( in mb ) Visibility ( mi km ) Precip ( " mm )
12:58 am 00:58 Clear 46 7.9 37 3 71 71 S 9 15 30.07 1018 10 16.0934 N/A
1:58 am 01:58 Clear 44 6.4 37 2.6 77 77 S 8 13 30.06 1018 10 16.0934 N/A
2:58 am 02:58 Clear 40 4.6 37 2.6 87 87 SSE 5 7 30.03 1017 10 16.0934 N/A
3:58 am 03:58 Clear 38 3.3 35 1.6 89 89 SE 7 11 30.01 1016 10 16.0934 N/A
4:58 am 04:58 Clear 38 3.2 36 2.2 93 93 S 5 7 30 1016 10 16.0934 N/A
5:58 am 05:58 Sunny 37 2.7 35 1.9 95 95 SW 6 9 29.98 1015 10 16.0934 N/A
6:58 am 06:58 Sunny 42 5.5 39 3.9 90 90 WSW 7 11 29.98 1015 10 16.0934 N/A
7:58 am 07:58 Sunny 49 9.6 42 5.4 75 75 SSW 3 6 29.98 1015 10 16.0934 N/A
8:58 am 08:58 Sunny 56 13.5 43 6 61 61 N N/A 29.96 1015 10 16.0934 N/A
9:58 am 09:58 Sunny 64 17.8 41 5.2 44 44 E 3 6 29.92 1013 10 16.0934 N/A
10:58 am 10:58 Sunny 69 20.3 42 5.8 39 39 SE 10 17 29.91 1013 10 16.0934 N/A
11:58 am 11:58 Sunny 71 21.8 43 5.9 36 36 ESE 10 17 29.88 1012 10 16.0934 N/A
12:58 pm 12:58 Sunny 74 23.1 42 5.5 32 32 SE 9 15 29.85 1011 10 16.0934 N/A
1:58 pm 13:58 Sunny 76 24.6 44 6.7 32 32 SE 16 26 29.82 1010 10 16.0934 N/A
2:58 pm 14:58 Sunny 78 25.3 42 5.6 28 28 SE 18 30 29.8 1009 10 16.0934 N/A
3:58 pm 15:58 Mostly Sunny 76 24.5 38 3.3 25 25 SE 16 26 29.79 1009 10 16.0934 N/A
4:58 pm 16:58 Mostly Sunny 73 22.9 41 5.2 32 32 SE 18 30 29.78 1009 10 16.0934 N/A
6:58 pm 18:58 Mostly Cloudy 68 19.8 46 7.5 45 45 ESE 9 15 29.78 1009 10 16.0934 N/A
7:58 pm 19:58 Sunny 64 17.7 46 8 53 53 ESE 10 17 29.75 1008 10 16.0934 N/A
8:58 pm 20:58 Mostly Clear 60 15.8 47 8.2 61 61 ESE 15 24 29.74 1007 10 16.0934 N/A
9:58 pm 21:58 Mostly Cloudy 58 14.7 48 8.7 68 68 SE 16 26 29.74 1007 10 16.0934 N/A
10:58 pm 22:58 Mostly Clear 56 13.2 47 8.4 73 73 SE 18 30 29.69 1005 10 16.0934 N/A
11:58 pm 23:58 Clear 54 12.3 47 8.6 78 78 SSE 18 30 29.65 1004 10 16.0934 N/A

Powered by AerisWeather